User: anonymous   Login
Location: Unspecified
(0.0000°N, 0.0000°E)
Time: 05:23:18
(UTC+01:00)
Language:

SJ-6B - Orbit

View from above orbital plane
View from above orbital plane
View from above satellite
View from above satellite

Ground track
Ground track

The orbit data is extracted from the following two-line orbital elements,

1 28415U 04035C   14356.12947431  .00007675  00000-0  55050-3 0  3720
2 28415 097.7969 002.0055 0054639 317.8504 041.8525 15.03419936561970
Epoch (UTC): 22 December 2014 03:06:26
Eccentricity: 0.0054639
inclination: 97.7969°
perigee height: 518 km
apogee height: 594 km
right ascension of ascending node: 2.0055°
argument of perigee: 317.8504°
revolutions per day: 15.03419936
mean anomaly at epoch: 41.8525°
orbit number at epoch: 56197

The dashed part of the orbit path shows where the satellite is in the earth's shadow,  

DLR